KI4NG Weather Reports


time (UTC)temp
C
wind
direction
speed
KPH
gust
KPH
rain 1hr
cm
rain 24hr
cm
rain mn
cm
humidity
%
barometer
mb
20260509032530 11 134 1.6 1.6 0.00 0.00 0.00 77 1013.2
20260509032027 11 152 0.0 1.6 0.00 0.00 0.00 78 1013.3
20260509031524 11 154 1.6 1.6 0.00 0.00 0.00 77 1013.2
20260509031022 12 134 1.6 1.6 0.00 0.00 0.00 74 1013.5
20260509030520 11 162 3.2 3.2 0.00 0.00 0.00 74 1013.3
20260509030016 11 135 1.6 1.6 0.00 0.00 0.00 75 1013.2
20260509025512 11 175 1.6 1.6 0.00 0.00 0.00 77 1013.5
20260509025008 11 131 1.6 1.6 0.00 0.00 0.00 76 1013.3
20260509024504 11 152 4.8 4.8 0.00 0.00 0.00 75 1013.6
20260509024001 12 164 3.2 4.8 0.00 0.00 0.00 75 1013.4
20260509023458 11 150 1.6 1.6 0.00 0.00 0.00 76 1013.6
20260509022955 11 169 3.2 3.2 0.00 0.00 0.00 77 1013.4
20260509022451 11 157 3.2 3.2 0.00 0.00 0.00 76 1013.3
20260509021949 12 164 1.6 1.6 0.00 0.00 0.00 76 1013.5
20260509021446 12 193 3.2 3.2 0.00 0.00 0.00 75 1013.5
20260509020943 12 152 3.2 3.2 0.00 0.00 0.00 73 1013.4
20260509020441 12 161 1.6 1.6 0.00 0.00 0.00 73 1013.4
20260509015938 12 161 1.6 1.6 0.00 0.00 0.00 74 1013.3
20260509015437 12 143 1.6 1.6 0.00 0.00 0.00 72 1013.3
20260509014933 12 154 1.6 1.6 0.00 0.00 0.00 69 1013.4
20260509014430 12 155 1.6 3.2 0.00 0.00 0.00 70 1013.2
20260509013926 13 140 1.6 1.6 0.00 0.00 0.00 67 1013.4
20260509013423 13 166 1.6 1.6 0.00 0.00 0.00 67 1013.1
20260509012919 13 154 1.6 1.6 0.00 0.00 0.00 71 1013.2
20260509012416 13 148 1.6 1.6 0.00 0.00 0.00 70 1013.1
20260509011913 13 153 1.6 1.6 0.00 0.00 0.00 69 1013.3
20260509011410 14 149 1.6 3.2 0.00 0.00 0.00 64 1013.3
20260509010908 14 150 0.0 0.0 0.00 0.00 0.00 65 1013.4
20260509010405 14 131 0.0 1.6 0.00 0.00 0.00 67 1013.4
20260509005902 15 172 3.2 3.2 0.00 0.00 0.00 61 1013.0
20260509005400 15 146 1.6 1.6 0.00 0.00 0.00 66 1013.2
20260509004900 15 160 1.6 3.2 0.00 0.00 0.00 64 1013.2
20260509004357 16 145 0.0 0.0 0.00 0.00 0.00 58 1013.4
20260509003854 16 169 1.6 3.2 0.00 0.00 0.00 55 1013.3
20260509003352 16 146 1.6 3.2 0.00 0.00 0.00 55 1013.4
20260509002849 16 162 4.8 4.8 0.00 0.00 0.00 55 1013.3
20260509002347 16 137 3.2 4.8 0.00 0.00 0.00 53 1013.2
20260509001844 16 181 6.4 8.0 0.00 0.00 0.00 52 1013.2
20260509001340 16 155 1.6 3.2 0.00 0.00 0.00 53 1013.4
20260509000837 17 177 4.8 4.8 0.00 0.00 0.00 52 1013.3
20260509000335 17 124 4.8 4.8 0.00 0.00 0.00 50 1013.2
20260508235831 17 172 1.6 3.2 0.00 0.00 0.00 51 1013.2
20260508235328 17 174 3.2 4.8 0.00 0.00 0.00 49 1013.2
20260508234825 17 110 3.2 3.2 0.00 0.00 0.00 49 1013.1
20260508234322 17 146 1.6 1.6 0.00 0.00 0.00 50 1013.1
20260508233820 17 168 1.6 1.6 0.00 0.00 0.00 49 1013.1
20260508233319 18 162 1.6 3.2 0.00 0.00 0.00 47 1013.0
20260508232816 18 170 1.6 1.6 0.00 0.00 0.00 48 1013.2
20260508232312 18 207 1.6 3.2 0.00 0.00 0.00 47 1013.1
20260508231811 18 139 0.0 1.6 0.00 0.00 0.00 46 1013.0
20260508231306 18 152 0.0 1.6 0.00 0.00 0.00 45 1013.1
20260508230803 19 169 1.6 1.6 0.00 0.00 0.00 45 1013.2
20260508230300 19 146 4.8 4.8 0.00 0.00 0.00 43 1013.1
20260508225758 19 177 3.2 4.8 0.00 0.00 0.00 45 1013.2
20260508225253 19 181 1.6 1.6 0.00 0.00 0.00 45 1013.5
20260508224752 20 177 1.6 3.2 0.00 0.00 0.00 42 1013.3
20260508224249 20 103 4.8 4.8 0.00 0.00 0.00 41 1013.7
20260508223747 20 109 3.2 4.8 0.00 0.00 0.00 42 1013.8
20260508223244 20 253 8.0 9.7 0.00 0.00 0.00 41 1013.9
20260508222741 20 179 4.8 4.8 0.00 0.00 0.00 43 1013.6
20260508222238 20 215 6.4 8.0 0.00 0.00 0.00 40 1013.9
20260508221734 20 198 1.6 3.2 0.00 0.00 0.00 42 1013.8
20260508221231 20 205 4.8 4.8 0.00 0.00 0.00 40 1013.7
20260508220726 20 161 1.6 1.6 0.00 0.00 0.00 42 1013.7
20260508220223 20 220 4.8 8.0 0.00 0.00 0.00 40 1013.8
20260508215720 20 192 6.4 8.0 0.00 0.00 0.00 37 1013.9
20260508215216 20 157 3.2 3.2 0.00 0.00 0.00 36 1013.7
20260508214714 20 152 1.6 1.6 0.00 0.00 0.00 38 1013.6
20260508214211 20 163 4.8 8.0 0.00 0.00 0.00 36 1013.6
20260508213707 20 97 4.8 8.0 0.00 0.00 0.00 35 1013.6
20260508213204 20 166 1.6 3.2 0.00 0.00 0.00 38 1013.4
20260508212700 20 171 1.6 3.2 0.00 0.00 0.00 40 1013.5
20260508212157 20 138 4.8 4.8 0.00 0.00 0.00 34 1013.5
20260508211652 20 159 1.6 3.2 0.00 0.00 0.00 39 1013.6
20260508211148 20 206 4.8 4.8 0.00 0.00 0.00 34 1013.5
20260508210646 20 211 8.0 9.7 0.00 0.00 0.00 35 1013.6
20260508210143 20 177 1.6 1.6 0.00 0.00 0.00 34 1013.6
20260508205640 20 157 3.2 3.2 0.00 0.00 0.00 42 1013.8
20260508205136 20 147 3.2 4.8 0.00 0.00 0.00 37 1013.9
20260508204632 20 213 8.0 11.3 0.00 0.00 0.00 35 1013.8
20260508204128 20 179 8.0 9.7 0.00 0.00 0.00 33 1013.8
20260508203625 20 249 8.0 9.7 0.00 0.00 0.00 37 1013.7
20260508203121 20 232 6.4 9.7 0.00 0.00 0.00 36 1013.9
20260508202617 20 174 4.8 8.0 0.00 0.00 0.00 37 1013.8
20260508202115 20 151 1.6 3.2 0.00 0.00 0.00 39 1013.7
20260508201611 20 234 3.2 3.2 0.00 0.00 0.00 35 1014.0
20260508201108 20 188 8.0 9.7 0.00 0.00 0.00 32 1014.1
20260508200605 19 171 3.2 4.8 0.00 0.00 0.00 35 1013.9
20260508200101 19 169 3.2 3.2 0.00 0.00 0.00 35 1014.4
20260508195558 19 179 0.0 1.6 0.00 0.00 0.00 37 1014.5
20260508195054 20 169 4.8 4.8 0.00 0.00 0.00 37 1014.5
20260508194551 19 233 6.4 8.0 0.00 0.00 0.00 36 1014.7
20260508194048 19 181 11.3 12.9 0.00 0.00 0.00 38 1014.9
20260508193544 20 143 3.2 3.2 0.00 0.00 0.00 40 1015.1
20260508193041 18 161 1.6 1.6 0.00 0.00 0.00 42 1015.0
20260508192538 19 199 11.3 12.9 0.00 0.00 0.00 39 1015.4
20260508192035 19 147 1.6 3.2 0.00 0.00 0.00 40 1015.3
20260508191532 19 182 4.8 4.8 0.00 0.00 0.00 39 1015.3
20260508191028 20 206 6.4 9.7 0.00 0.00 0.00 43 1015.2
20260508190526 19 148 4.8 4.8 0.00 0.00 0.00 37 1015.4
20260508190022 19 149 6.4 9.7 0.00 0.00 0.00 46 1015.4
20260508185519 19 229 6.4 9.7 0.00 0.00 0.00 42 1015.6
20260508185017 19 118 1.6 1.6 0.00 0.00 0.00 38 1015.6
20260508184514 19 167 4.8 8.0 0.00 0.00 0.00 40 1016.0
20260508184011 18 153 4.8 8.0 0.00 0.00 0.00 41 1015.8
20260508183507 18 243 6.4 8.0 0.00 0.00 0.00 38 1016.1
20260508183003 18 60 3.2 4.8 0.00 0.00 0.00 39 1015.9
20260508182500 18 223 8.0 9.7 0.00 0.00 0.00 39 1016.1
20260508181956 18 223 6.4 9.7 0.00 0.00 0.00 41 1015.9
20260508181452 18 190 8.0 9.7 0.00 0.00 0.00 47 1016.1
20260508180950 18 195 1.6 3.2 0.00 0.00 0.00 45 1016.4
20260508180446 18 68 3.2 4.8 0.00 0.00 0.00 39 1016.4
20260508175942 18 147 1.6 3.2 0.00 0.00 0.00 40 1016.4
20260508175439 18 81 3.2 3.2 0.00 0.00 0.00 42 1016.4
20260508174937 17 212 6.4 8.0 0.00 0.00 0.00 40 1016.2
20260508174434 18 122 4.8 8.0 0.00 0.00 0.00 40 1016.4
20260508173931 17 173 4.8 4.8 0.00 0.00 0.00 45 1016.7
20260508173428 17 189 3.2 3.2 0.00 0.00 0.00 39 1016.7
20260508172923 17 189 4.8 4.8 0.00 0.00 0.00 42 1016.9
20260508172422 18 185 3.2 3.2 0.00 0.00 0.00 41 1016.9
20260508171917 17 138 1.6 3.2 0.00 0.00 0.00 45 1016.9
20260508171414 16 172 1.6 3.2 0.00 0.00 0.00 49 1017.2
20260508170911 16 218 4.8 8.0 0.00 0.00 0.00 42 1017.3
20260508170408 17 131 3.2 3.2 0.00 0.00 0.00 43 1017.2
20260508165904 17 159 3.2 3.2 0.00 0.00 0.00 41 1017.5
20260508165403 17 92 6.4 11.3 0.00 0.00 0.00 42 1017.3
20260508164858 17 255 8.0 11.3 0.00 0.00 0.00 41 1017.5
20260508164355 16 265 3.2 8.0 0.00 0.00 0.00 43 1017.6
20260508163853 16 140 1.6 3.2 0.00 0.00 0.00 43 1017.6
20260508163350 17 223 8.0 12.9 0.00 0.00 0.00 47 1017.7
20260508162845 17 246 4.8 4.8 0.00 0.00 0.00 45 1017.8
20260508162343 16 211 1.6 3.2 0.00 0.00 0.00 46 1017.9
20260508161840 16 150 1.6 1.6 0.00 0.00 0.00 44 1017.9
20260508161337 16 124 8.0 11.3 0.00 0.00 0.00 43 1018.0
20260508160834 16 221 9.7 9.7 0.00 0.00 0.00 43 1018.2
20260508160333 16 135 1.6 3.2 0.00 0.00 0.00 49 1018.3
20260508155829 16 136 6.4 8.0 0.00 0.00 0.00 48 1018.5
20260508155326 15 120 3.2 3.2 0.00 0.00 0.00 46 1018.5
20260508154823 16 229 6.4 8.0 0.00 0.00 0.00 47 1018.3
20260508154321 15 145 3.2 3.2 0.00 0.00 0.00 49 1018.5
20260508153817 15 181 6.4 8.0 0.00 0.00 0.00 54 1018.5
20260508153315 16 214 1.6 3.2 0.00 0.00 0.00 53 1018.6
20260508152810 16 152 3.2 3.2 0.00 0.00 0.00 47 1018.6
20260508152307 15 109 4.8 4.8 0.00 0.00 0.00 54 1019.0
20260508151803 15 227 6.4 9.7 0.00 0.00 0.00 51 1018.8
20260508151300 15 173 6.4 8.0 0.00 0.00 0.00 49 1018.8
20260508150756 15 120 0.0 0.0 0.00 0.00 0.00 52 1018.7
20260508150253 15 132 4.8 4.8 0.00 0.00 0.00 55 1019.0
20260508145749 15 108 4.8 8.0 0.00 0.00 0.00 54 1018.8
20260508145246 14 189 4.8 4.8 0.00 0.00 0.00 52 1018.8
20260508144743 15 185 3.2 3.2 0.00 0.00 0.00 53 1019.0
20260508144241 14 234 6.4 8.0 0.00 0.00 0.00 61 1018.7
20260508143738 13 220 6.4 8.0 0.00 0.00 0.00 60 1018.9
20260508143235 13 252 9.7 11.3 0.00 0.00 0.00 60 1019.0
20260508142731 13 120 1.6 3.2 0.00 0.00 0.00 61 1019.0
20260508142228 13 119 3.2 4.8 0.00 0.00 0.00 62 1018.9
20260508141725 13 155 3.2 3.2 0.00 0.00 0.00 64 1018.9
20260508141222 13 126 0.0 1.6 0.00 0.00 0.00 63 1018.9
20260508140720 12 175 1.6 3.2 0.00 0.00 0.00 65 1019.1
20260508140216 12 211 3.2 4.8 0.00 0.00 0.00 70 1018.9
20260508135712 12 130 3.2 3.2 0.00 0.00 0.00 71 1018.8
20260508135208 12 195 4.8 8.0 0.00 0.00 0.00 70 1019.0
20260508134704 12 174 4.8 8.0 0.00 0.00 0.00 70 1018.9
20260508134201 11 123 4.8 4.8 0.00 0.00 0.00 70 1018.8
20260508133658 11 177 6.4 8.0 0.00 0.00 0.00 75 1018.9
20260508133156 11 232 6.4 8.0 0.00 0.00 0.00 76 1018.7
20260508132653 10 175 4.8 8.0 0.00 0.00 0.00 77 1018.7
20260508132150 10 156 3.2 3.2 0.00 0.00 0.00 77 1018.7
20260508131646 10 187 4.8 4.8 0.00 0.00 0.00 78 1018.5
20260508131142 10 175 3.2 3.2 0.00 0.00 0.00 81 1018.7
20260508130639 9 156 3.2 3.2 0.00 0.00 0.00 83 1018.7
20260508130136 9 121 1.6 3.2 0.00 0.00 0.00 85 1018.6
20260508125631 8 157 3.2 3.2 0.00 0.00 0.00 84 1018.9
20260508125129 8 171 3.2 4.8 0.00 0.00 0.00 88 1018.8
20260508124627 7 158 4.8 4.8 0.00 0.00 0.00 87 1018.6
20260508124124 7 170 3.2 3.2 0.00 0.00 0.00 90 1018.7
20260508123622 6 169 3.2 3.2 0.00 0.00 0.00 92 1018.7
20260508123119 6 179 4.8 4.8 0.00 0.00 0.00 95 1018.5
20260508122615 5 173 3.2 3.2 0.00 0.00 0.00 97 1018.6
20260508122112 5 158 3.2 3.2 0.00 0.00 0.00 99 1018.7
20260508121611 5 163 3.2 3.2 0.00 0.00 0.00 99 1018.5
20260508121108 4 155 3.2 3.2 0.00 0.00 0.00 99 1018.3
20260508120606 4 162 3.2 3.2 0.00 0.00 0.00 99 1018.3
20260508120104 4 160 3.2 3.2 0.00 0.00 0.00 99 1018.3
20260508115601 4 159 3.2 3.2 0.00 0.00 0.00 99 1018.2
20260508115057 3 152 3.2 3.2 0.00 0.00 0.00 99 1018.1
20260508114555 3 152 3.2 3.2 0.00 0.00 0.00 99 1018.0
20260508114050 3 155 3.2 3.2 0.00 0.00 0.00 99 1018.1
20260508113548 3 156 3.2 3.2 0.00 0.00 0.00 99 1017.9
20260508113046 3 154 3.2 3.2 0.00 0.00 0.00 99 1018.0
20260508112542 3 157 3.2 3.2 0.00 0.00 0.00 99 1017.9
20260508112039 3 156 3.2 3.2 0.00 0.00 0.00 99 1017.8
20260508111536 3 153 3.2 3.2 0.00 0.00 0.00 99 1017.7
20260508111033 3 154 3.2 3.2 0.00 0.00 0.00 99 1017.7
20260508110531 3 147 1.6 1.6 0.00 0.00 0.00 99 1017.6
20260508110027 3 151 1.6 1.6 0.00 0.00 0.00 99 1017.7
20260508105522 3 149 1.6 3.2 0.00 0.00 0.00 99 1017.3
20260508105019 3 152 1.6 1.6 0.00 0.00 0.00 99 1017.5
20260508104517 3 153 3.2 3.2 0.00 0.00 0.00 99 1017.3
20260508104013 3 143 1.6 1.6 0.00 0.00 0.00 99 1017.4
20260508103510 3 154 1.6 3.2 0.00 0.00 0.00 99 1017.2
20260508103008 3 156 1.6 1.6 0.00 0.00 0.00 99 1017.2
20260508102506 3 147 1.6 1.6 0.00 0.00 0.00 99 1017.1
20260508102003 3 156 3.2 3.2 0.00 0.00 0.00 99 1017.2
20260508101500 3 153 3.2 3.2 0.00 0.00 0.00 99 1017.3
20260508100956 3 162 0.0 0.0 0.00 0.00 0.00 99 1017.3
20260508100455 3 152 0.0 0.0 0.00 0.00 0.00 99 1017.4
20260508095951 3 154 0.0 0.0 0.00 0.00 0.00 99 1017.0
20260508095449 3 150 0.0 0.0 0.00 0.00 0.00 99 1016.9
20260508094946 3 148 0.0 0.0 0.00 0.00 0.00 99 1016.9
20260508094442 3 152 1.6 1.6 0.00 0.00 0.00 99 1017.1
20260508093939 3 144 1.6 1.6 0.00 0.00 0.00 99 1016.9
20260508093437 3 150 1.6 1.6 0.00 0.00 0.00 99 1017.0
20260508092934 3 153 1.6 1.6 0.00 0.00 0.00 99 1017.2
20260508092432 4 154 1.6 1.6 0.00 0.00 0.00 99 1017.1
20260508091930 4 142 1.6 1.6 0.00 0.00 0.00 99 1016.9
20260508091427 4 154 1.6 1.6 0.00 0.00 0.00 99 1017.0
20260508090924 4 161 1.6 1.6 0.00 0.00 0.00 99 1016.9
20260508090423 4 152 1.6 1.6 0.00 0.00 0.00 99 1016.9
20260508085918 4 156 1.6 1.6 0.00 0.00 0.00 99 1016.8
20260508085415 5 155 1.6 3.2 0.00 0.00 0.00 99 1016.7
20260508084911 4 149 1.6 1.6 0.00 0.00 0.00 99 1016.9
20260508084408 4 149 1.6 1.6 0.00 0.00 0.00 99 1016.9
20260508083906 4 147 1.6 1.6 0.00 0.00 0.00 99 1016.9
20260508083403 5 153 1.6 1.6 0.00 0.00 0.00 99 1016.9
20260508082903 4 150 0.0 0.0 0.00 0.00 0.00 99 1016.8
20260508082401 4 145 0.0 0.0 0.00 0.00 0.00 99 1016.9
20260508081858 4 148 0.0 1.6 0.00 0.00 0.00 99 1017.0
20260508081355 4 148 0.0 1.6 0.00 0.00 0.00 98 1016.9
20260508080851 5 155 1.6 3.2 0.00 0.00 0.00 98 1017.0
20260508080349 5 151 3.2 3.2 0.00 0.00 0.00 97 1017.0
20260508075846 5 156 0.0 0.0 0.00 0.00 0.00 96 1017.0
20260508075343 5 149 0.0 0.0 0.00 0.00 0.00 95 1016.7
20260508074841 5 139 0.0 0.0 0.00 0.00 0.00 96 1017.0
20260508074337 5 138 0.0 0.0 0.00 0.00 0.00 98 1016.7
20260508073834 5 137 0.0 0.0 0.00 0.00 0.00 99 1016.6
20260508073332 5 138 0.0 0.0 0.00 0.00 0.00 99 1016.8
20260508072829 5 142 0.0 0.0 0.00 0.00 0.00 99 1017.0
20260508072325 5 150 0.0 0.0 0.00 0.00 0.00 99 1016.9
20260508071823 5 150 0.0 0.0 0.00 0.00 0.00 99 1017.0
20260508071321 5 151 1.6 1.6 0.00 0.00 0.00 99 1017.1
20260508070818 5 150 1.6 1.6 0.00 0.00 0.00 98 1017.1
20260508070316 5 146 1.6 1.6 0.00 0.00 0.00 98 1017.2
20260508065813 5 139 1.6 1.6 0.00 0.00 0.00 97 1017.4
20260508065311 5 151 3.2 3.2 0.00 0.00 0.00 97 1017.3
20260508064809 5 149 3.2 3.2 0.00 0.00 0.00 97 1017.3
20260508064307 5 153 1.6 1.6 0.00 0.00 0.00 96 1017.4
20260508063804 5 155 1.6 1.6 0.00 0.00 0.00 95 1017.5
20260508063302 5 162 1.6 3.2 0.00 0.00 0.00 94 1017.3
20260508062759 5 159 3.2 3.2 0.00 0.00 0.00 92 1017.4
20260508062256 5 150 1.6 1.6 0.00 0.00 0.00 93 1017.2
20260508061753 6 143 0.0 0.0 0.00 0.00 0.00 92 1017.2
20260508061250 6 143 0.0 0.0 0.00 0.00 0.00 90 1017.2
20260508060747 7 143 0.0 0.0 0.00 0.00 0.00 83 1017.1
20260508060245 7 146 0.0 0.0 0.00 0.00 0.00 78 1017.2
20260508055740 7 145 0.0 0.0 0.00 0.00 0.00 78 1017.3
20260508055237 7 132 0.0 0.0 0.00 0.00 0.00 77 1017.3
20260508054733 7 132 0.0 0.0 0.00 0.00 0.00 76 1017.2
20260508054232 7 132 0.0 0.0 0.00 0.00 0.00 76 1017.1
20260508053728 7 132 0.0 0.0 0.00 0.00 0.00 75 1017.1
20260508053226 7 132 0.0 0.0 0.00 0.00 0.00 76 1017.3
20260508052722 8 131 0.0 0.0 0.00 0.00 0.00 77 1017.2
20260508052219 7 113 0.0 0.0 0.00 0.00 0.00 75 1017.4
20260508051716 7 139 0.0 0.0 0.00 0.00 0.00 80 1017.1
20260508051211 6 139 0.0 0.0 0.00 0.00 0.00 83 1017.3
20260508050708 6 140 0.0 0.0 0.00 0.00 0.00 84 1017.5
20260508050206 6 140 0.0 0.0 0.00 0.00 0.00 87 1017.5
20260508045700 6 140 0.0 0.0 0.00 0.00 0.00 90 1017.4
20260508045159 6 140 0.0 0.0 0.00 0.00 0.00 88 1017.4
20260508044656 7 140 0.0 0.0 0.00 0.00 0.00 87 1017.6
20260508044152 7 140 0.0 0.0 0.00 0.00 0.00 85 1017.6
20260508043648 7 140 0.0 0.0 0.00 0.00 0.00 81 1017.5
20260508043146 7 140 0.0 0.0 0.00 0.00 0.00 77 1017.3
20260508042643 7 140 0.0 0.0 0.00 0.00 0.00 80 1017.6
20260508042140 7 139 0.0 0.0 0.00 0.00 0.00 83 1017.4
20260508041636 7 140 0.0 0.0 0.00 0.00 0.00 82 1017.3
20260508041133 7 140 0.0 0.0 0.00 0.00 0.00 83 1017.2
20260508040629 7 140 0.0 0.0 0.00 0.00 0.00 86 1017.2
20260508040127 7 140 0.0 0.0 0.00 0.05 0.05 89 1017.0
20260508035624 7 140 0.0 0.0 0.00 0.05 0.05 88 1016.9
20260508035122 7 140 0.0 0.0 0.00 0.05 0.05 86 1016.9
20260508034618 7 140 0.0 0.0 0.00 0.05 0.05 88 1017.0
20260508034116 7 140 0.0 0.0 0.00 0.05 0.05 86 1017.0
20260508033613 7 140 0.0 0.0 0.00 0.05 0.05 82 1017.0
20260508033111 7 138 0.0 0.0 0.00 0.05 0.05 81 1017.0